#timestamp,LO_Frequency,Hit,StdDev 
1636606815.9,286047002.5,N
1636606835.7,286047004.4,Y
1636606855.6,286047002.7,P
1636606875.4,286046999.8,N
1636606895.2,286047003.9,P
1636606915.1,286047001.3,N
1636606916.0,286047001.3,N
1636606935.8,286047001.6,N
1636606955.6,286047001.9,N
1636606975.5,286047001.7,N
1636606995.3,286047001.5,N
1636607015.1,286047002.1,N
1636607035.9,286047003.4,Y
1636607055.7,286047001.8,P
1636607075.5,286047002.7,P
1636607095.4,286047000.9,N
1636607115.2,286047000.3,N
1636607135.0,286047000.6,N
1636607135.9,286047000.6,N
1636607155.8,286047000.6,N
1636607175.6,286046998.9,N
1636607195.4,286046999.3,N
1636607215.3,286046998.9,N
1636607235.1,286046998.5,N
1636607236.0,286046998.5,N
1636607255.8,286046998.5,N
1636607275.7,286046998.3,N
1636607295.5,286046998.2,N
1636607315.3,286046999.1,N
1636607335.2,286046999.2,N
1636607355.9,286047001.2,N
1636607375.7,286047000.9,N
1636607395.6,286047000.7,N
1636607415.4,286047002.3,N
1636607435.2,286047002.6,N
1636607455.1,286047002.7,N
1636607456.0,286047002.7,N
1636607475.8,286047000.3,N
1636607495.6,286047000.5,N
1636607515.5,286046999.9,N
1636607535.3,286046999.8,N
1636607555.1,286047001.8,N
1636607575.9,286047002.1,N
1636607595.7,286047001.4,N
1636607615.5,286047001.7,N
1636607635.4,286047001.6,N
1636607655.2,286047003.3,N
1636607675.0,286047003.3,N
1636607675.9,286047003.3,N
1636607695.8,286047003.8,N
1636607715.6,286047003.2,N
1636607735.4,286047001.4,N
1636607755.2,286047001.8,N
1636607775.1,286047002.7,N
1636607776.0,286047002.7,N
1636607795.8,286047002.0,N
1636607815.6,286047003.2,N
1636607835.5,286047004.2,N
1636607855.3,286047006.0,Y
1636607875.2,286047003.7,P
1636607895.9,286046999.7,N
1636607915.7,286047002.4,N
1636607935.5,286046999.9,N
1636607955.4,286046999.7,N
1636607975.2,286047000.5,N
1636607995.0,286047000.6,N
1636607996.0,286047000.6,N
1636608015.8,286046999.7,N
1636608035.6,286047000.4,N
1636608055.4,286047002.7,N
1636608075.3,286047004.3,Y
1636608095.1,286047004.2,P
1636608115.8,286047001.3,N
1636608135.7,286047004.0,N
1636608155.5,286047001.4,N
1636608175.3,286047004.0,N
1636608195.2,286047004.1,N
1636608215.0,286047003.6,N
1636608215.9,286047003.6,N
1636608235.7,286047001.4,N
1636608255.6,286047004.0,Y
1636608275.4,286047002.5,P
1636608295.2,286047002.8,P
1636608315.1,286047002.2,P
1636608316.0,286047002.2,Y
1636608335.8,286047001.1,P
1636608355.7,286046998.3,N
1636608375.5,286047000.7,N
1636608395.3,286046998.4,N
1636608415.1,286046996.7,N
1636608435.9,286046998.7,N
1636608455.7,286046999.6,N
1636608475.5,286046996.9,N
1636608495.4,286046996.9,N
1636608515.2,286046997.1,N
1636608535.0,286046999.6,N
1636608535.9,286046999.6,N
1636608555.8,286046998.5,N
1636608575.6,286046998.8,N
1636608595.4,286046999.1,N
1636608615.3,286046997.2,N
1636608635.1,286046997.5,N
1636608655.8,286046997.5,N
1636608675.7,286046999.3,N
1636608695.5,286046999.4,N
1636608715.3,286047002.4,N
1636608735.2,286047001.8,N
1636608755.0,286047004.0,N
1636608755.9,286047004.0,N
1636608775.7,286047001.3,N
1636608795.6,286047002.0,N
1636608815.4,286047001.4,N
1636608835.2,286047001.8,N
1636608855.1,286047002.1,N
1636608856.0,286047002.1,N
1636608875.8,286047002.4,N
1636608895.6,286047002.3,N
1636608915.5,286047002.8,N
1636608935.3,286047000.4,N
1636608955.1,286046999.8,N
1636608975.9,286047002.4,N
1636608995.7,286047001.8,N
1636609015.5,286047002.4,N
1636609035.4,286047002.1,N
1636609055.2,286047003.9,N
1636609075.0,286047003.6,N
1636609075.9,286047003.6,N
1636609095.8,286047004.4,N
1636609115.6,286047002.2,N
1636609135.4,286047002.6,N
1636609155.3,286047002.4,N
1636609175.1,286047000.1,N
1636609195.8,286046999.8,N
1636609215.7,286047002.2,N
1636609235.5,286046999.7,N
1636609255.3,286047002.3,N
1636609275.2,286046999.8,N
1636609295.0,286047001.5,N
1636609295.9,286047001.5,N
1636609315.7,286047004.3,Y
1636609335.6,286047002.6,P
1636609355.4,286047002.2,P
1636609375.2,286047002.1,P
1636609395.1,286047002.3,Y
1636609396.0,286047002.3,P
1636609415.8,286047000.9,P
1636609435.6,286046998.2,N
1636609455.5,286047000.8,N
1636609475.3,286046999.1,N
1636609495.1,286046999.3,N
1636609515.9,286046999.3,N
1636609535.7,286046998.8,N
1636609555.5,286046999.5,N
1636609575.4,286046998.3,N
1636609595.2,286047000.7,N
1636609615.0,286047001.0,N
1636609615.9,286047001.0,N
1636609635.8,286046998.3,N
1636609655.6,286046998.9,N
1636609675.4,286046998.9,N
1636609695.3,286047001.1,N
1636609715.1,286047000.8,N
1636609735.8,286047001.1,N
1636609755.7,286047000.7,N
1636609775.5,286046998.2,N
1636609795.3,286046998.4,N
1636609815.2,286046999.2,N
1636609835.0,286046998.8,N
1636609835.9,286046998.8,N
1636609855.7,286046999.2,N
1636609875.6,286046999.8,N
1636609895.4,286047001.0,N
1636609915.2,286047002.7,N
1636609935.1,286047000.2,N
1636609936.0,286047000.2,N
1636609955.8,286047000.3,N
1636609975.6,286047000.0,N
1636609995.5,286047002.4,N
1636610015.3,286047001.6,N
1636610035.1,286047000.1,N
1636610055.9,286047002.7,N
1636610075.7,286046999.9,N
1636610095.5,286046999.9,N
1636610115.4,286047002.8,N
1636610135.2,286047002.4,N
1636610155.0,286047004.2,Y
1636610155.9,286047004.2,P
1636610175.8,286047006.0,P
1636610195.6,286047004.2,N
1636610215.4,286047003.3,N
1636610235.3,286047005.7,Y
1636610255.1,286047002.0,P
1636610275.8,286047002.6,P
1636610295.7,286047002.4,P
1636610315.5,286047000.4,N
1636610335.3,286047002.8,N
1636610355.2,286047002.6,N
1636610375.0,286047001.6,N
1636610375.9,286047001.6,N
1636610395.7,286047001.3,N
